CAPE
11 0 0 0 0 0 6 0 0 1 0 0 0 0 0 0 0 0 0 0 0 0 0 0 0 0 0 0 0 0 0 0 0 0 0 0 0 0 0 13 29 17 0 0
1 4 0 4 7 0 0 0 0 0 0 0 0 0 0 0 0 0 0 0 0 0 0 0 0 0 0 0 0 0 0 0 0 0 0 0 0 0 0 0 0 0 0 0
0 0 0 0 0 0 0 0 0 0 0 0 0 0 0 0 0 0 0 0 0 0 0 0 0 0 0 0 0 0 0 0 0 0 0 0 0 0 0 0 0 0 0 0
0 0 0 0 0 0 0 0 0 0 0 0 0 0 0 0 0 0 0 0 0 0 0 0 0 0 0 0 0 0 0 0 0 0 0 0 0 0 0 0 0 0 0 0
0 0 0 0 0 0 0 0 0 0 0 0 0 0 0 0 0 0 0 0 0 0 0 0 0 0 0 0 0 0 0 0 0 0 0 0 0 0 0 0 0 0 0 0
0 0 0 0 0 0 0 0 0 0 0 0 0 0 0 0 0 0 0 0 0 0 0 0 0 0 0 0 0 0 0 0 0 0 0 0 0 0 0 0 0 0 0 0
0 0 0 0 0 0 0 0 0 0 0 0 0 0 0 0 0 0 0 0 0 0 0 0 0 0 0 0 0 0 0 0 0 0 0 0 0 0 0 0 0 0 0 0
0 0 0 0 0 0 0 0 0 0 0 0 0 0 0 0 0 0 0 0 0 0 0 0 0 0 0 0 0 0 0 0 0 0 0 0 0 0 0 0 0 0 0 0
0 0 0 0 0 1 3 0 0 0 0 0 0 0 0 0 0 0 0 0 0 0 0 0 0 0 0 0 0 0 0 0 0 0 0 0 0 0 0 0 0 0 0 0
0 0 2 0 0 0 3 0 0 0 0 0 0 0 0 0 0 0 0 0 0 0 0 0 0 0 0 0 0 0 0 0 0 0 0 0 0 0 0 0 0 0 0 0
0 0 2 0 3 1 0 2 0 0 0 0 0 0 0 0 0 0 0 0 0 0 0 0 0 0 0 0 0 0 0 0 0 0 0 0 0 0 0 0 0 0 0 0
0 1 1 3 0 0 1 0 0 0 0 0 0 0 0 0 0 0 0 0 0 0 0 0 0 0 0 0 0 0 0 0 0 0 0 0 0 0 0 0 0 0 0 0
0 0 0 0 0 0 0 0 0 0 0 0 0 0 0 0 0 0 0 0 0 0 0 0 0 0 0 0 0 0 0 0 0 0 0 0 0 0 0 0 0 0 0 0
7 3 0 0 0 0 0 0 0 0 0 0 0 0 0 0 0 0 0 0 0 0 0 0 0 0 0 0 0 0 0 0 0 0 0 0 0 0 0 0 0 0 0 0
0 0 0 0 0 0 0 0 0 0 0 1 0 0 0 0 0 0 0 0 0 0 0 0 0 0 0 0 0 0 0 0 0 0 0 0 0 0 0 0 0 0 0 0
0 1 0 0 0 0 0 0 0 0 0 0 0 0 0 0 0 0 0 0 0 0 0 0 0 0 0 0 0 0 0 0 0 0 0 0 0 0 0 0 0 0 0 0
0 0 0 0 0 0 0 0 0 0 0 0 0 0 0 0 0 0 0 0 0 0 0 0 0 0 0 0 0 0 0 0 0 0 0 0 0 0 0 0 0 0 0 0
2 1 0 0 0 0 0 0 0 0 0 0 0 0 0 0 0 0 0 0 0 0 0 0 0 0 0 0 0 0 0 0 0 0 0 0 0 0 0 0 0 0 0 0
0 0 0 0 0 0 0 0 0 0 0 0 0 0 0 0 0 0 0 0 0 0 0 0 0 0 0 0 0 0 0 0 0 0 0 0 0 0 0 0 0 0 0 0
0 0 0 0 0 0 0 0 0 0 0 0 0 0 0 0 0 0 0 0 0 0 0 0 0 0 0 0 0 0 0 0 0 0 0 0 0 0 0 0 0 0 0 0
0 0 0 0 0 0 0 0 0 0 0 0 0 0 0 0 0 0 0 0 0 0 0 0 0 0 0 0 0 0 0 0 0 0 0 0 0 0 0 0 0 0 0 0
0 0 0 0 0 0 0 0 0 0 0 0 0 0 0 0 0 0 0 0 0 0 0 0 0 0 0 0 0 0 0 0 0 0 0 0 0 0 0 0 0 0 0 0
0 0 0 0 0 0 0 0 0 0 0 0 0 0 0 0 0 0 0 0 0 0 0 0 0 0 0 0 0 0 0 0 0 0 0 0 0 0 0 0 0 0 1 2
0 0 0 0 0 0 0 0 0 0 0 0 0 0 0 0 0 0 0 0 0 0 0 0 0 0 0 0 0 0 0 0 0 0 0 0 0 0 0 0 0 0 1 0
0 0 0 0 0 0 0 0 0 0 0 0 0 0 0 0 0 0 0 0 0 0 0 0 0 0 0 0 0 0 0 0 0 0 0 0 0 0 0 0 0 0 0 0
0 0 0 0 0 0 0 0 0 0 0 0 0 0 0 0 0 0 0 0 0 0 0 0 0 0 0 0 0 0 0 0 0 0 0 0 0 0 0 0 0 0 0 0
CIN
-16 -0 -0 -0 -0 -0 -0 -0 -1 -2 -0 -0 -0 -0 -0 -0 -0 -0 -0 -0 -0 -0 -0 -0 -0 -0 -0 -0 -0 -0 -0 -0 -0 -0 -0 -0 -0 -0 -0 -95 -94 -111 -0 -0
-0 -17 -0 -1 -2 -0 -0 -0 -0 -0 -0 -0 -0 -0 -0 -0 -0 -0 -0 -0 -0 -0 -0 -0 -0 -0 -0 -0 -0 -0 -0 -0 -0 -0 -0 -0 -0 -0 -0 -0 -0 -0 -0 -0
-0 -0 -0 -0 -0 -3 -0 -0 -0 -0 -0 -0 -0 -0 -0 -0 -0 -0 -0 -0 -0 -0 -0 -0 -0 -0 -0 -0 -0 -0 -0 -0 -0 -0 -0 -0 -0 -0 -0 -0 -0 -0 -0 -0
-0 -0 -0 -0 -0 -0 -2 -0 -0 -0 -0 -0 -0 -0 -0 -0 -0 -0 -0 -0 -0 -0 -0 -0 -0 -0 -0 -0 -0 -0 -0 -0 -0 -0 -0 -0 -0 -0 -0 -0 -0 -0 -0 -0
-0 -0 -0 -0 -0 -0 -0 -0 -0 -0 -0 -0 -0 -0 -0 -0 -0 -0 -0 -0 -0 -0 -0 -0 -0 -0 -0 -0 -0 -0 -0 -0 -0 -0 -0 -0 -0 -0 -0 -0 -0 -0 -0 -0
-0 -0 -0 -0 -0 -0 -0 -0 -0 -0 -0 -0 -0 -0 -0 -0 -0 -0 -0 -0 -0 -0 -0 -0 -0 -0 -0 -0 -0 -0 -0 -0 -0 -0 -0 -0 -0 -0 -0 -0 -0 -0 -0 -0
-0 -0 -0 -0 -0 -0 -0 -0 -0 -0 -0 -0 -0 -0 -0 -0 -0 -0 -0 -0 -0 -0 -0 -0 -0 -0 -0 -0 -0 -0 -0 -0 -0 -0 -0 -0 -0 -0 -0 -0 -0 -0 -0 -0
-0 -0 -0 -0 -0 -0 -0 -0 -0 -0 -0 -0 -0 -0 -0 -0 -0 -0 -0 -0 -0 -0 -0 -0 -0 -0 -0 -0 -0 -0 -0 -0 -0 -0 -0 -0 -0 -0 -0 -0 -0 -0 -0 -0
-0 -0 -0 -0 -0 -1 -1 -0 -0 -0 -0 -0 -0 -0 -0 -0 -0 -0 -0 -0 -0 -0 -0 -0 -0 -0 -0 -0 -0 -0 -0 -0 -0 -0 -0 -0 -0 -0 -0 -0 -0 -0 -0 -0
-0 -0 -0 -0 -0 -0 -2 -0 -0 -0 -0 -0 -0 -0 -0 -0 -0 -0 -0 -0 -0 -0 -0 -0 -0 -0 -0 -0 -0 -0 -0 -0 -0 -0 -0 -0 -0 -0 -0 -0 -0 -0 -0 -0
-0 -0 -0 -0 -1 -1 -0 -1 -0 -0 -0 -0 -0 -0 -0 -0 -0 -0 -0 -0 -0 -0 -0 -0 -0 -0 -0 -0 -0 -0 -0 -0 -0 -0 -0 -0 -0 -0 -0 -0 -0 -0 -0 -0
-0 -0 -0 -0 -0 -0 -1 -0 -0 -0 -0 -0 -0 -0 -0 -0 -0 -0 -0 -0 -0 -0 -0 -0 -0 -0 -0 -0 -0 -0 -0 -0 -0 -0 -0 -0 -0 -0 -0 -0 -0 -0 -0 -0
-0 -0 -0 -0 -0 -0 -0 -0 -0 -0 -0 -0 -0 -0 -0 -0 -0 -0 -0 -0 -0 -0 -0 -0 -0 -0 -0 -0 -0 -0 -0 -0 -0 -0 -0 -0 -0 -0 -0 -0 -0 -0 -0 -0
-4 -1 -0 -0 -0 -0 -0 -0 -0 -0 -0 -0 -0 -0 -0 -0 -0 -0 -0 -0 -0 -0 -0 -0 -0 -0 -0 -0 -0 -0 -0 -0 -0 -0 -0 -0 -0 -0 -0 -0 -0 -0 -0 -0
-16 -0 -0 -0 -0 -0 -0 -0 -0 -0 -0 -1 -0 -0 -0 -0 -0 -0 -0 -0 -0 -0 -0 -0 -0 -0 -0 -0 -0 -0 -0 -0 -0 -0 -0 -0 -0 -0 -0 -0 -0 -0 -0 -0
-0 -0 -0 -0 -0 -0 -0 -0 -0 -0 -0 -0 -0 -0 -0 -0 -0 -0 -0 -0 -0 -0 -0 -0 -0 -0 -0 -0 -0 -0 -0 -0 -0 -0 -0 -0 -0 -0 -0 -0 -0 -0 -0 -0
-1 -0 -0 -0 -0 -0 -0 -0 -0 -0 -0 -0 -0 -0 -0 -0 -0 -0 -0 -0 -0 -0 -0 -0 -0 -0 -0 -0 -0 -0 -0 -0 -0 -0 -0 -0 -0 -0 -0 -0 -0 -0 -0 -0
-0 -0 -0 -0 -0 -0 -0 -0 -0 -0 -0 -0 -0 -0 -0 -0 -0 -0 -0 -0 -0 -0 -0 -0 -0 -0 -0 -0 -0 -0 -0 -0 -0 -0 -0 -0 -0 -0 -0 -0 -0 -0 -0 -0
-0 -0 -0 -0 -0 -0 -0 -0 -0 -0 -0 -0 -0 -0 -0 -0 -0 -0 -0 -0 -0 -0 -0 -0 -0 -0 -0 -0 -0 -0 -0 -0 -0 -0 -0 -0 -0 -0 -0 -0 -0 -0 -0 -0
-0 -0 -0 -0 -0 -0 -0 -0 -0 -0 -0 -0 -0 -0 -0 -0 -0 -0 -0 -0 -0 -0 -0 -0 -0 -0 -0 -0 -0 -0 -0 -0 -0 -0 -0 -0 -0 -0 -0 -0 -0 -0 -0 -0
-0 -0 -0 -0 -0 -0 -0 -0 -0 -0 -0 -0 -0 -0 -0 -0 -0 -0 -0 -0 -0 -0 -0 -0 -0 -0 -0 -0 -0 -0 -0 -0 -0 -0 -0 -0 -0 -0 -0 -0 -0 -0 -0 -0
-0 -0 -0 -0 -0 -0 -0 -0 -0 -0 -0 -0 -0 -0 -0 -0 -0 -0 -0 -0 -0 -0 -0 -0 -0 -0 -0 -0 -0 -0 -0 -0 -0 -0 -0 -0 -0 -0 -0 -0 -0 -0 -0 -0
-0 -0 -0 -0 -0 -0 -0 -0 -0 -0 -0 -0 -0 -0 -0 -0 -0 -0 -0 -0 -0 -0 -0 -0 -0 -0 -0 -0 -0 -0 -0 -0 -0 -0 -0 -0 -0 -0 -0 -0 -0 -0 -0 -0
-0 -0 -0 -0 -0 -0 -0 -0 -0 -0 -0 -0 -0 -0 -0 -0 -0 -0 -0 -0 -0 -0 -0 -0 -0 -0 -0 -0 -0 -0 -0 -0 -0 -0 -0 -0 -0 -0 -0 -0 -0 -0 -0 -0
-0 -0 -0 -0 -0 -0 -0 -0 -0 -0 -0 -0 -0 -0 -0 -0 -0 -0 -0 -0 -0 -0 -0 -0 -0 -0 -0 -0 -0 -0 -0 -0 -0 -0 -0 -0 -0 -0 -0 -0 -0 -0 -0 -1
-0 -0 -0 -0 -0 -0 -0 -0 -0 -0 -0 -0 -0 -0 -0 -0 -0 -0 -0 -0 -0 -0 -0 -0 -0 -0 -0 -0 -0 -0 -0 -0 -0 -0 -0 -0 -0 -0 -0 -0 -0 -0 -0 -0
Wind_Speed
24 31 31 24 22 26 27 29 29 24 23 24 27 31 30 23 25 26 26 24 24 25 24 24 24 23 23 21 22 22 22 22 22 22 22 22 22 21 20 20 20 20 21 21
28 40 29 25 25 22 20 31 32 29 26 26 30 34 35 32 33 32 31 31 30 31 31 29 28 27 25 27 27 25 26 26 25 24 25 25 25 24 24 23 23 23 23 24
33 27 20 22 26 29 29 31 27 29 25 28 34 42 42 37 35 34 33 34 35 36 35 34 33 32 32 31 31 31 29 28 26 25 24 25 26 27 28 26 26 24 25 26
31 24 26 24 31 27 36 30 29 28 30 34 27 40 32 31 31 28 29 31 31 31 31 32 32 32 31 32 32 31 30 29 27 26 27 27 29 31 28 27 27 27 26 27
34 27 27 29 28 22 28 22 29 31 33 37 36 38 39 37 34 34 29 27 27 26 28 28 29 29 29 29 30 29 28 27 27 26 26 27 28 28 28 28 29 28 27 27
26 25 24 27 22 23 18 19 21 25 30 43 42 39 41 36 32 28 24 23 25 24 25 25 25 25 26 27 27 26 25 25 24 25 25 26 28 29 29 29 29 28 27 27
26 26 24 21 22 23 23 23 33 36 37 42 30 37 44 28 27 25 21 22 20 20 21 21 21 22 24 26 26 26 25 25 24 24 24 24 25 27 28 28 28 29 29 28
34 37 25 22 25 28 27 26 32 41 41 39 28 38 34 27 26 23 22 24 23 21 17 17 19 22 24 25 26 26 25 25 25 24 24 24 24 26 27 28 28 29 29 29
30 29 18 18 19 17 26 34 24 31 30 36 35 32 31 28 28 24 22 21 19 17 16 18 20 24 26 26 27 27 26 26 25 25 25 25 26 27 29 30 30 30 30 30
23 27 21 18 16 18 20 18 30 30 41 46 39 37 38 27 24 19 20 19 18 16 15 17 20 25 27 27 27 27 27 27 26 26 26 27 28 29 29 30 31 31 31 31
17 22 22 17 26 25 24 25 26 25 29 37 42 35 24 29 25 22 16 15 15 15 17 19 23 28 28 28 28 28 28 28 29 29 29 29 30 31 31 31 32 32 33 33
17 19 25 24 21 22 25 26 25 33 34 32 34 36 24 24 21 17 13 17 17 17 20 24 29 31 31 29 29 30 30 29 29 30 30 31 32 32 33 34 34 34 36 35
20 21 25 23 22 22 24 25 26 27 27 32 33 28 22 21 18 16 20 19 18 22 27 33 35 34 30 29 30 30 31 31 31 32 32 33 34 34 34 35 36 36 36 36
19 20 25 30 25 22 27 26 26 28 33 32 33 32 24 21 22 23 23 24 30 35 37 36 35 31 28 28 29 30 29 29 31 32 33 34 34 35 36 36 36 36 37 38
20 26 25 24 24 24 25 28 28 32 33 35 33 36 34 36 38 39 39 40 40 37 35 34 32 31 30 30 30 29 29 31 32 33 34 35 35 35 36 37 38 38 38 38
18 21 21 27 25 26 31 29 28 30 34 41 45 53 42 41 38 39 37 35 35 35 33 30 29 30 30 28 28 29 30 31 32 32 33 34 36 37 38 38 39 39 40 39
18 20 24 30 25 28 36 34 32 32 32 34 41 44 38 35 34 34 34 30 31 30 29 29 28 27 27 27 28 31 33 33 34 35 36 39 40 42 42 42 42 43 43 43
19 19 22 27 24 37 28 26 26 30 33 33 38 38 36 36 35 32 29 29 30 27 25 25 26 28 29 30 32 34 35 36 38 39 41 42 43 44 44 45 45 44 44 44
19 20 24 28 32 35 35 29 27 29 36 33 37 37 37 35 29 29 25 24 23 23 24 26 29 31 31 32 34 36 38 39 40 42 42 43 44 45 46 46 45 43 42 42
23 24 26 27 33 39 28 23 24 25 44 35 36 39 36 28 35 29 22 22 23 25 27 30 32 33 34 36 37 40 41 42 42 43 43 43 43 44 45 44 45 43 43 43
24 26 30 30 35 37 32 29 23 31 35 30 28 28 27 28 27 21 22 24 26 29 32 33 33 35 35 36 38 40 41 41 41 42 42 42 42 43 42 42 42 43 43 43
21 22 26 25 31 41 23 24 27 28 29 30 29 28 25 23 23 25 27 29 31 33 34 33 34 36 36 36 39 39 39 39 39 40 42 42 41 41 40 41 41 41 41 43
23 20 22 18 23 23 19 23 23 26 29 27 26 23 23 26 27 28 30 33 34 33 33 34 35 36 35 35 36 38 38 40 40 42 42 41 41 40 41 42 42 41 41 42
21 20 22 21 23 25 26 25 26 25 26 25 24 24 25 28 28 30 31 32 31 31 33 33 34 35 36 36 36 36 38 39 41 42 42 41 41 41 40 40 39 40 41 43
20 12 16 17 32 31 28 17 8 5 8 14 19 19 21 24 27 29 31 30 30 30 30 32 34 36 36 35 36 36 37 38 40 40 40 40 40 41 42 40 40 41 40 41
27 27 26 25 24 22 22 19 7 8 9 7 7 4 6 10 14 20 21 24 26 27 30 32 32 33 34 34 35 35 36 37 38 40 40 40 41 41 41 42 43 40 41 42
Wind_Direction
246 242 241 245 249 252 243 246 251 256 263 261 261 261 262 270 272 271 273 278 282 285 291 293 296 298 300 302 302 302 301 301 302 303 303 303 303 305 306 307 309 310 312 313
244 238 250 256 251 250 251 248 253 261 267 267 265 262 262 266 267 270 274 277 281 283 287 291 293 297 300 301 301 301 301 300 300 300 302 303 307 307 307 309 308 309 310 312
242 250 249 251 250 248 252 249 253 258 269 271 269 265 263 266 270 273 276 277 279 281 284 288 292 294 297 298 299 299 299 299 300 300 302 303 304 305 306 307 308 310 311 312
250 252 247 250 249 252 250 256 261 262 265 263 271 265 271 265 270 277 279 280 282 285 289 292 295 296 300 301 301 302 301 300 300 300 299 299 300 301 307 309 310 310 311 312
243 248 246 249 250 254 259 267 262 263 265 267 265 269 267 270 272 279 284 284 287 290 295 297 299 302 305 307 308 306 306 304 304 303 302 303 302 305 307 307 307 309 311 314
249 254 252 254 256 251 261 265 271 271 269 263 263 266 270 272 275 284 288 290 291 296 301 305 308 310 311 313 316 316 313 310 310 309 308 307 305 307 308 309 309 311 313 315
245 250 255 253 248 252 252 253 261 262 262 265 276 265 265 281 284 285 287 294 298 304 308 312 318 321 321 321 321 321 319 315 315 313 312 313 312 312 311 312 312 312 313 315
237 244 244 249 250 254 249 252 259 260 262 268 274 270 276 282 284 288 288 292 295 300 308 317 324 326 326 325 325 325 323 320 319 317 316 317 317 316 315 315 315 314 314 314
238 248 247 246 258 250 249 252 271 271 275 271 270 275 285 286 285 287 289 295 298 298 302 313 320 324 325 325 325 324 324 323 321 320 319 319 318 317 315 315 314 314 313 313
247 244 251 251 257 261 261 254 262 268 265 266 273 276 275 285 285 287 288 293 299 301 305 316 323 327 326 325 324 323 323 322 322 321 320 319 318 317 316 316 314 314 313 312
251 253 250 250 253 251 258 258 268 274 273 272 272 279 291 287 287 283 289 298 301 302 307 313 321 324 324 325 324 323 322 320 320 319 319 317 317 316 315 314 314 314 313 313
260 259 249 254 266 266 258 263 262 267 271 274 278 277 293 294 292 290 295 305 304 304 308 312 316 318 319 321 322 322 323 321 322 321 320 319 318 317 315 314 314 313 312 311
247 256 248 255 265 266 264 263 266 268 277 271 273 284 296 294 295 294 298 302 304 304 309 309 312 315 317 318 320 320 320 320 321 321 320 320 319 318 316 316 316 314 313 312
252 258 260 257 267 269 264 265 265 265 270 274 270 276 290 301 293 293 297 296 298 301 306 308 310 313 318 320 322 324 325 327 326 325 324 323 323 322 321 321 320 318 316 314
263 260 264 272 276 276 275 271 267 265 270 271 278 278 283 286 287 288 291 294 298 302 305 309 311 313 317 319 322 324 325 326 327 326 326 325 325 324 323 321 320 319 318 317
268 266 271 270 275 276 273 275 275 275 276 275 277 273 285 287 288 289 293 297 299 302 306 311 313 315 318 323 324 325 327 328 329 328 327 326 325 324 323 321 321 320 319 318
269 268 269 268 277 277 272 272 272 276 278 279 279 282 289 289 292 293 294 300 304 307 310 312 316 320 322 325 326 325 325 326 325 325 324 323 322 320 320 320 320 319 318 317
270 271 275 272 276 268 281 287 282 279 279 281 281 285 289 290 296 300 304 303 305 309 314 317 320 321 323 324 324 323 323 323 322 322 322 322 321 321 321 320 319 319 319 317
277 275 274 273 272 280 281 283 284 283 282 286 285 287 290 295 300 299 310 313 313 316 319 319 320 320 322 323 324 323 321 321 321 320 322 322 322 321 321 320 320 321 320 319
269 275 274 275 275 274 287 296 295 295 283 293 291 289 290 296 292 299 311 316 318 320 319 318 320 321 321 321 322 319 320 321 321 322 322 323 323 323 321 322 321 321 320 318
268 270 268 272 277 281 287 289 300 282 293 305 305 303 301 297 301 307 311 313 317 317 317 319 320 319 321 322 322 321 322 322 323 324 325 325 325 325 325 325 325 324 323 322
271 270 273 274 280 281 291 295 289 297 303 305 306 305 303 304 306 307 308 310 313 315 316 318 319 319 321 323 323 323 324 326 327 326 325 326 327 328 328 328 328 328 327 325
278 279 284 275 284 296 302 302 304 309 307 306 307 308 307 304 305 309 309 310 312 314 316 317 319 320 323 326 326 324 324 326 326 326 326 327 328 328 329 328 328 329 330 328
288 287 287 292 291 291 296 301 305 307 307 308 307 306 307 305 307 308 312 315 315 316 318 320 321 322 322 324 325 325 326 327 326 326 326 327 326 328 330 329 329 329 329 328
282 307 297 251 237 244 236 225 231 242 324 324 320 318 318 316 312 312 313 316 319 320 321 323 322 322 323 325 325 327 328 328 327 328 328 328 328 328 329 329 329 328 328 328
204 206 205 216 224 220 229 226 188 185 189 191 204 247 318 327 329 328 326 326 326 325 325 325 325 325 325 326 327 328 330 330 329 328 329 329 328 328 329 328 327 330 329 330